Regional Weather Roundup
Issued by NWS

Home | Current Version | Previous Version | Text Only | Print | Product List | Glossary On
Versions: 1 2 3 4 5 6 7 8 9 10 11 12 13 14 15 16 17 18 19 20 21 22 23 24 25 26 27 28 29 30 31 32 33 34 35 36 37 38 39 40 41 42 43 44 45 46 47 48 49 50
000
ASUS43 KTOP 141159
RWRKS

WEATHER ROUNDUP FOR KANSAS
NATIONAL WEATHER SERVICE GOODLAND KS
600 AM CST SUN FEB 14 2016

NOTE:  "FAIR" INDICATES FEW OR NO CLOUDS BELOW 12,000 FEET WITH NO
SIGNIFICANT WEATHER AND/OR OBSTRUCTIONS TO VISIBILITY.

KSZ001>006-013>018-027>032-041>047-141300-
NORTHWEST KANSAS

CITY           SKY/WX    TMP DP  RH WIND       PRES   REMARKS
GOODLAND       CLEAR     27  22  81 W10       29.98R WCI  17
6HR MIN TEMP:  26; 6HR MAX TEMP:  33;

HAYS           CLOUDY    21   9  58 W7        29.98F
HILL CITY      CLEAR     32  26  78 W7        29.97S
6HR MIN TEMP:  24; 6HR MAX TEMP:  34;

RUSSELL        CLOUDY    19  14  81 SW10      29.97F WCI   7
6HR MIN TEMP:  17; 6HR MAX TEMP:  29;

$$

KSZ061>065-074>080-084>089-141300-
SOUTHWEST KANSAS

CITY           SKY/WX    TMP DP  RH WIND       PRES   REMARKS
DODGE CITY     CLOUDY    29  23  78 N13       29.97F WCI  19
6HR MIN TEMP:  23; 6HR MAX TEMP:  31;

ELKHART          N/A     35  22  59 N13         N/A  WCI  26
GARDEN CITY    CLOUDY    23  21  92 W9        29.99S
6HR MIN TEMP:  23; 6HR MAX TEMP:  31;

GREAT BEND     CLOUDY    19   9  63 NW6       30.00S
LIBERAL        CLOUDY    32  25  74 NW14      29.99R WCI  22
$$

KSZ066>073-081>083-090>101-141300-
SOUTHEAST KANSAS

CITY           SKY/WX    TMP DP  RH WIND       PRES   REMARKS
CHANUTE        CLOUDY    34  15  46 E7        30.00F
6HR MIN TEMP:  30; 6HR MAX TEMP:  36;

COFFEYVILLE    CLOUDY    39  21  48 NE6       30.02F
6HR MIN TEMP:  31; 6HR MAX TEMP:  40;

HUTCHINSON     CLOUDY    21  11  65 CALM      29.99F
6HR MIN TEMP:  20; 6HR MAX TEMP:  29;

MEDICINE LODGE   N/A     27  16  63 N9        29.98R
NEWTON         CLOUDY    19   9  63 E3        29.99F
PARSONS        CLOUDY    38  21  50 CALM      30.02F
6HR MIN TEMP:  32; 6HR MAX TEMP:  40;

WICHITA INTL   CLOUDY    27  12  53 N10       30.01R WCI  17
6HR MIN TEMP:  27; 6HR MAX TEMP:  37;

WICHITA JABRA  CLOUDY    22  11  62 N9        30.00R
6HR MIN TEMP:  22; 6HR MAX TEMP:  30;

WINFIELD       CLOUDY    36  19  50 E8        29.98F
6HR MIN TEMP:  36; 6HR MAX TEMP:  39;

$$

KSZ007>012-019>026-033>040-048>060-102>105-141300-
NORTHEAST KANSAS

CITY           SKY/WX    TMP DP  RH WIND       PRES   REMARKS
CONCORDIA      CLEAR     19   9  65 W5        29.97S
6HR MIN TEMP:  15; 6HR MAX TEMP:  21;

EMPORIA        PTCLDY    22  10  60 NW7       30.02R
6HR MIN TEMP:  20; 6HR MAX TEMP:  26; 6HR PCP: TRACE;

LAWRENCE       CLOUDY    26  11  52 SE5       30.04F
6HR MIN TEMP:  22; 6HR MAX TEMP:  27;

MANHATTAN      CLEAR     16   9  74 CALM      30.00F
6HR MIN TEMP:  14; 6HR MAX TEMP:  23;

OLATHE IND     CLOUDY    26  19  74 SE8       30.03S
6HR MIN TEMP:  22; 6HR MAX TEMP:  26; 6HR PCP:  0.02;

OLATHE EXE     CLOUDY    25  18  74 SE7       30.02F
6HR MIN TEMP:  22; 6HR MAX TEMP:  25; 6HR PCP:  0.01;

SALINA         CLOUDY    19  11  70 S6        30.00F
6HR MIN TEMP:  19; 6HR MAX TEMP:  26;

TOPEKA BILLARD CLEAR     23   7  50 S3        30.03F
6HR MIN TEMP:  22; 6HR MAX TEMP:  26;

TOPEKA FORBES  PTCLDY    21  10  62 SE3       30.01F
6HR MIN TEMP:  21; 6HR MAX TEMP:  25;

$$



USA.gov is the U.S. government's official web portal to all federal, state and local government web resources and services.